User: anonymous   Login
Location: Chiroubles
(46.1812°N, 4.6660°E)
Time: 21:31:38
(UTC+00:00)
Language:

Tiros 1 despin weight - Orbit

View from above orbital plane
View from above orbital plane
View from above satellite
View from above satellite

Ground track
Ground track

The orbit data is extracted from the following two-line orbital elements,

1   115U 60002D   21332.50101689  .00000298  00000-0  62125-4 0  9995
2   115  48.1663 249.7042 0034122  60.2705 300.1596 14.83913329291534
Epoch (UTC): 28 November 2021 12:01:27
Eccentricity: 0.0034122
inclination: 48.1663°
perigee height: 593 km
apogee height: 641 km
right ascension of ascending node: 249.7042°
argument of perigee: 60.2705°
revolutions per day: 14.83913329
mean anomaly at epoch: 300.1596°
orbit number at epoch: 29153

The dashed part of the orbit path shows where the satellite is in the earth's shadow,  

DLR